Velovelo
Português Nederlands 日本語 中文
Español English čeština slovenčina
русский italiano polski norsk
français Deutsch svenska عربي
 
 página anterior
 Enviar a amigos
 Para imprimir
 ---> La Corima Drôme Provençale 2014 : Résultats du 76 km

Résultats électroniques réalisés par KMS informatique (08 92 68 33 13 - 0,34 €/mn) notre partenaire chronométrage.

ClasDos.NomPrénomCatC.c.Temps.....Moy...
1 1231 JANNIN FLORENT A 1 02:11:34 35.57
2 1472 LOMBARDO ALEXANDRO A 2 02:11:34 35.57
3 44 RIMOUX FABIEN C 1 02:14:22 34.83
4 59 REYNIER GREGORY B 1 02:14:38 34.76
5 175 PILLET XAVIER B 2 02:14:48 34.72
6 1705 DUPOUY JEROME B 3 02:14:53 34.70
7 1360 STADLER ERIC D 1 02:14:53 34.70
8 229 GENEVES ROLAND D 2 02:14:57 34.68
9 194 BRUTTOMESSO DANIEL D 3 02:14:58 34.68
10 743 ELDIN UGO A 3 02:15:07 34.64
11 216 BERTOLOTTI LAURENT C 2 02:15:08 34.63
12 434 BERTHON MANUEL C 3 02:15:11 34.62
13 987 ALVES LUIS B 4 02:15:39 34.50
14 200 SAUVADON QUENTIN A 4 02:15:43 34.48
15 156 GALLO CHRISTIAN D 4 02:16:30 34.29
16 1479 BABE MICHAEL B 5 02:16:42 34.24
17 963 BORTHIEWIEZ JONATHAN A 5 02:16:47 34.21
18 158 RIMOUX AURELIEN A 6 02:16:54 34.19
19 1715 RIFFARD FRANCK C 4 02:16:54 34.19
20 1332 GILBERT LUC D 5 02:16:55 34.18
21 1371 BALDUCCI ALFRED E 1 02:16:55 34.18
22 1459 BUGNI MATHIEU A 7 02:16:58 34.17
23 1720 MULOT JEROME C 5 02:17:04 34.14
24 1056 DECOTTIGNIES RICHARD C 6 02:17:05 34.14
25 56 LOIRET BENOIT C 7 02:17:14 34.10
26 214 JOUFFRET DIDIER D 6 02:17:16 34.09
27 698 GAUTHRIN THIERRY C 8 02:17:17 34.09
28 1387 DECOTTE BERNARD E 2 02:17:22 34.07
29 495 EGIO VINCENT C 9 02:17:23 34.07
30 249 DIB WALID C 10 02:17:36 34.01
31 123 SICARD ALEXIS A 8 02:17:37 34.01
32 1179 FELIX ALEXANDRE C 11 02:22:17 32.89
33 1717 BULTEZ-PERZIGUIAN JEAN A 9 02:22:19 32.88
34 124 BARAL JULIEN B 6 02:22:26 32.86
35 608 GOTTI LIONEL B 7 02:22:30 32.84
36 230 LAUDET ALAIN D 7 02:22:31 32.84
37 1081 DEBANNE WILLIAM C 12 02:22:51 32.76
38 536 GENEST PIERRE B 8 02:22:59 32.73
39 389 GUICHARDAZ BASTIEN B 9 02:24:06 32.48
40 1440 BERNIER PAUL B 10 02:24:50 32.31
41 1727 VEZIAN BRUNO C 13 02:24:55 32.29
42 986 MANCILHA SILVERIO C 14 02:24:55 32.29
43 738 FUGIER PHILIPPE C 15 02:24:56 32.29
44 202 BILLON FRANCK C 16 02:24:57 32.29
45 806 POCHAT JEREMY A 10 02:24:58 32.28
46 153 CHABOT GILLES E 3 02:24:59 32.28
47 1461 BAPTMALE ALAIN E 4 02:25:01 32.27
48 112 LAPIERRE CHRISTOPHE C 17 02:25:01 32.27
49 1430 COTTE FRANCOIS C 18 02:25:03 32.26
50 188 THOPART CHRISTOPHE C 19 02:25:04 32.26
51 947 PEYRO MICHEL D 8 02:25:04 32.26
52 193 CLEMENT PIERRE F 1 02:25:04 32.26
53 570 BAROLLE JEAN-PIERRE E 5 02:25:04 32.26
54 267 IZIER MAURICE F 2 02:25:05 32.26
55 170 DURAND FREDERIC C 20 02:25:27 32.18
56 1023 KERDO JOSEPH C 21 02:25:49 32.10
57 191 SAGNEL FABIEN B 11 02:25:51 32.09
58 758 SAGNEL CAROLINE W1 1 02:25:52 32.08
59 1044 GONZALEZ MIGUEL D 9 02:25:52 32.08
60 907 LEBRA BASTIEN A 11 02:25:56 32.07
61 1079 THOMASSIN RICHARD D 10 02:32:04 30.78
62 1256 VENET REGIS D 11 02:33:04 30.57
63 100 LICINI ROBIN C 22 02:33:04 30.57
64 802 TERZIBACHIAN FRANCK F 3 02:33:04 30.57
65 887 DUPUY MIREILLE W2 1 02:33:05 30.57
66 1435 CHAUDIER JEROME C 23 02:33:06 30.57
67 1208 GASBARRE PATRICK C 24 02:33:06 30.57
68 1228 VEZINHET JOEL E 6 02:33:08 30.56
69 1045 CLODION ALAIN A 12 02:33:08 30.56
70 1230 CHOPOT GILLES C 25 02:33:10 30.55
71 655 CORNETTE ALAIN E 7 02:33:11 30.55
72 201 BILLON JEAN-LUC F 4 02:33:12 30.55
73 1161 COQUILLAT MAURICE F 5 02:33:28 30.50
74 686 ARNAUD EMMANUEL C 26 02:33:29 30.49
75 677 SCHWIND MICHEL F 6 02:33:30 30.49
76 354 GUILLAUMONT FREDERIC C 27 02:33:47 30.43
77 1285 GACHON AURELIEN A 13 02:33:48 30.43
78 1416 LE-LUE KEVIN A 14 02:33:51 30.42
79 544 DELAPLACE BASTIEN B 12 02:33:59 30.39
80 490 BESNARD LAETITIA W1 2 02:34:10 30.36
81 512 GUERNUT PASCAL B 13 02:34:12 30.35
82 101 LICINI GAELLE W2 2 02:34:19 30.33
83 1434 BILLAT LIONEL C 28 02:34:28 30.30
84 135 EXTRA DENIS D 12 02:34:29 30.29
85 664 CEYTE CORINE W2 3 02:34:34 30.28
86 1719 NAUD DANIEL E 8 02:34:42 30.25
87 419 TOTTOLI BENOIT A 15 02:34:50 30.23
88 822 SCIAUVAU JEAN-BERNARD C 29 02:35:50 30.03
89 766 PEYRIN ARNAUD B 14 02:36:30 29.90
90 1168 VENGEON PATRICK C 30 02:37:29 29.72
91 1714 LIOSON ROMAIN A 16 02:37:36 29.70
92 1432 CASEROTTO BRUNO E 9 02:38:51 29.46
93 266 IZIER CLAUDE F 7 02:39:03 29.42
94 892 JUET PIERRE A 17 02:39:20 29.37
95 858 VINCON BAPTISTE A 18 02:39:30 29.34
96 274 BARBETTA AMELIE W1 3 02:39:40 29.31
97 273 AMYOT RODOLPHE A 19 02:39:40 29.31
98 1474 INCONNU C 31 02:39:43 29.30
99 290 INOS BRUNO C 32 02:39:48 29.29
100 1123 SARKISSIAN PASCAL B 15 02:39:48 29.29
101 345 PEREZ RAPHAEL C 33 02:39:51 29.28
102 12 HERMAND PIERRE F 8 02:39:52 29.27
103 1204 GAUCHIER THIERRY C 34 02:39:52 29.27
104 57 BENDALI BOUALEM C 35 02:39:54 29.27
105 593 GREGO ANTOINE C 36 02:39:55 29.27
106 1374 LEVEQUE PHILIPPE C 37 02:39:56 29.26
107 831 BENSA ANDRE F 9 02:39:58 29.26
108 223 HILAK AIMEE W2 4 02:40:00 29.25
109 1342 FRISON SEBASTIAN C 38 02:40:00 29.25
110 920 PAPIN JEAN-MARC C 39 02:40:20 29.19
111 1401 COSTE EDOUARD D 13 02:40:22 29.18
112 122 BANCAL PATRICK D 14 02:40:30 29.16
113 111 BIASINI ERIC C 40 02:40:30 29.16
114 1141 VIAL JEREMY A 20 02:40:51 29.10
115 923 REYNIER CHRISTOPHE D 15 02:40:52 29.09
116 953 PASTORELLI-DALMASSO CRISTEL W1 4 02:40:58 29.07
117 410 RAYMON PHILIPE C 41 02:41:00 29.07
118 164 MARMILLOUD CHRISTOPHE C 42 02:41:01 29.07
119 1467 DARET CHRISTINE W2 5 02:41:02 29.06
120 917 NICOLAUD JULIEN B 16 02:41:03 29.06
121 390 ARCIS FABIEN C 43 02:41:23 29.00
122 1067 TRACOL MICHAEL C 44 02:41:23 29.00
123 1078 MENARD FRANC C 45 02:41:56 28.90
124 881 SOUCIET ERIC C 46 02:41:58 28.89
125 1227 SPECOGNA MIKAEL C 47 02:42:42 28.76
126 635 LILLAMAND PHILIPPE C 48 02:43:30 28.62
127 1331 LABAT ALAIN D 16 02:45:12 28.33
128 152 GUENIN MATHIEU C 49 02:45:24 28.30
129 760 LE-POULAIN DELPHINE W2 6 02:45:26 28.29
130 742 CHAPON PHILIPPE C 50 02:45:28 28.28
131 528 SORBIER JEAN-LOUIS E 10 02:45:32 28.27
132 725 OBOZIL-GACHE GEORGES C 51 02:45:36 28.26
133 765 MARTINELLI SAN A 21 02:45:37 28.26
134 113 DELASARA THIERRY D 17 02:45:38 28.26
135 918 MORICE JEAN-LUC E 11 02:45:38 28.26
136 699 CHENEVAS CHRISTIANE W3 1 02:45:39 28.25
137 1172 ANDRE SABINE W2 7 02:45:43 28.24
138 783 JUET MARC D 18 02:46:04 28.18
139 532 JACQUEMIN SERGE C 52 02:46:31 28.11
140 491 BERTHON FABIEN B 17 02:47:30 27.94
141 433 INCONNU C 53 02:48:58 27.70
142 981 RENAUD DOMINIQUE W3 2 02:49:03 27.68
143 964 SURAY PATRICK D 19 02:49:04 27.68
144 78 CLEMENT SERGE C 54 02:49:04 27.68
145 519 CALVIERE PHILIPPE C 55 02:49:16 27.65
146 796 DELAVAULT LAURENT C 56 02:49:26 27.62
147 1441 BONNET VINCENT B 18 02:49:42 27.58
148 380 FAYSSE OLIVIER B 19 02:49:50 27.56
149 1200 BAILLEST LAURENT C 57 02:50:01 27.53
150 1225 DRAI CHARLY F 10 02:50:03 27.52
151 142 HUGUES CHRISTINE W3 3 02:50:10 27.50
152 571 GAIN MATTHEW C 58 02:50:33 27.44
153 494 TALLARON YVES E 12 02:50:49 27.40
154 1125 BOIS PATRICE D 20 02:51:18 27.32
155 77 MASERATI SIMON E 13 02:51:28 27.29
156 372 POCHEVILLE ARNAUD B 20 02:51:28 27.29
157 839 GIBELIN JEAN-PAUL D 21 02:51:50 27.24
158 985 MOLITERNI FREDERIC C 59 02:51:52 27.23
159 4 PELLEGRIN GUILLAUME C 60 02:52:14 27.17
160 324 LONJARET CHRISTINE W3 4 02:52:14 27.17
161 431 BUGNI PATRICK D 22 02:52:40 27.10
162 1447 JOURDAIN CYRIL B 21 02:53:22 26.99
163 601 MESSINA SAMUEL B 22 02:53:24 26.99
164 722 DEMARCO SANDRINE W1 5 02:55:11 26.71
165 417 LAURAIRE GILBERT E 14 02:57:33 26.36
166 1099 BRUNET LETITIA W1 6 02:58:20 26.24
167 478 SOLA HERVE B 23 02:58:23 26.24
168 943 FERRAND DIDIER D 23 02:58:31 26.22
169 376 NOSEDA JEAN-CHARLES C 61 02:59:04 26.14
170 958 CONNAUGHTON BRIAN F 11 02:59:41 26.05
171 425 VERDAUD ANTONY C 62 03:00:27 25.94
172 1091 VILTROUVE LUDOVIC A 22 03:00:28 25.93
173 1229 SANDELION MARC F 12 03:00:28 25.93
174 517 ROBERT SYLVIE W2 8 03:00:34 25.92
175 1226 RIVIER JEAN-THOMAS B 24 03:00:47 25.89
176 834 IWEINS VINCENT B 25 03:00:47 25.89
177 1021 MARQUANT YVES E 15 03:00:48 25.88
178 384 LANJARD BENJAMIN B 26 03:01:55 25.73
179 696 DELISLE JACQUES F 13 03:02:40 25.62
180 1262 DUBOIS GERARD E 16 03:02:45 25.61
181 1406 DOUAY ANDRE D 24 03:03:00 25.57
182 931 COLIN EMMANUEL C 63 03:03:22 25.52
183 480 COUTELIER DAVID C 64 03:03:55 25.45
184 1151 ROATTINO RENE E 17 03:04:42 25.34
185 1007 DRIVON YVES F 14 03:04:45 25.33
186 1146 PRAL RENE F 15 03:04:46 25.33
187 680 ADAN OLIVIER H 1 03:04:51 25.32
188 706 KREBS CYRIL C 65 03:05:08 25.28
189 1240 MARTIN SIMON F 16 03:05:08 25.28
190 215 BRES PATRICE C 66 03:05:12 25.27
191 309 LERNON LUCIEN D 25 03:05:12 25.27
192 833 BIZIERES MICHEL F 17 03:05:26 25.24
193 891 TERRASSE ERIC C 67 03:05:29 25.23
194 1090 BEN-AYED HATEM C 68 03:05:55 25.17
195 757 MAZZA JEAN-PIERRE F 18 03:05:56 25.17
196 1286 FERRIE JEAN-MARC D 26 03:05:57 25.17
197 166 GAZZOLA GILBERT D 27 03:06:23 25.11
198 382 QUOY MICHEL D 28 03:06:39 25.07
199 874 NICETTA LAETITIA W1 7 03:07:04 25.02
200 531 PIC BERTRAND C 69 03:07:06 25.01
201 707 CHANEAC PHILIPPE C 70 03:07:47 24.92
202 1272 LEPEURIEN PHILIPPE D 29 03:08:13 24.86
203 1476 INCONNU C 71 03:08:15 24.86
204 350 VALERO FLORIAN A 23 03:09:02 24.76
205 846 ESTIVAL FRANCOISE W3 5 03:09:15 24.73
206 870 MAUBLANC MARIE-ODILE W3 6 03:10:16 24.60
207 1235 INCONNU C 72 03:10:38 24.55
208 1457 MAUBLAMC JEAN-PAUL F 19 03:10:38 24.55
209 1031 BARTHES RICHARD B 27 03:11:10 24.48
210 1064 ROUBY JACQUES F 20 03:11:45 24.41
211 687 LAUSSINE JEAN-LOUIS C 73 03:14:05 24.11
212 346 MAURY CHRISTIAN F 21 03:14:12 24.10
213 542 GUILLERMIN NICOLAS B 28 03:14:27 24.07
214 564 PRATT MICHAEL B 29 03:14:54 24.01
215 452 BENAVENT GUY F 22 03:14:58 24.00
216 1039 HUGUET PHILIPPE C 74 03:15:59 23.88
217 336 CLIMENT JEAN-MARC E 18 03:16:06 23.87
218 335 CLIMENT SEBASTIEN B 30 03:16:07 23.86
219 683 LEDENT DENIS D 30 03:16:16 23.85
220 932 MATHIEU STEPHANIE W2 9 03:16:19 23.84
221 1171 MILLET-BAYOL CHRISTINE W3 7 03:16:47 23.78
222 1178 COMBET JEAN-FRANCOIS E 19 03:16:50 23.78
223 500 PACHOUD PHILIPPE C 75 03:17:09 23.74
224 1160 AUBERT THIERRY D 31 03:18:01 23.63
225 1193 LAMY FELIX A 24 03:18:19 23.60
226 1195 VARIGAUD VICTOR-CLEMENT A 25 03:18:23 23.59
227 1433 OASSEL FRANCK C 76 03:18:25 23.59
228 599 SOLINAS PATRICE C 77 03:19:12 23.49
229 1105 CONNESSON MURIEL W2 10 03:19:14 23.49
230 1112 ORSET PIERRE D 32 03:20:06 23.39
231 1291 ANGELUCCI GREGOIRE B 31 03:20:43 23.32
232 639 BECCAMEL PIERRE F 23 03:20:49 23.30
233 412 BILLON GUILLAUME C 78 03:22:15 23.14
234 1379 LESOIN JLUC C 79 03:22:23 23.12
235 387 BACON YANNICK B 32 03:22:53 23.07
236 470 SZTELMA ESTELLE W2 11 03:22:54 23.07
237 271 PAIMPARE LAURENT D 33 03:23:08 23.04
238 770 STRIMBERG VALERIE W2 12 03:23:12 23.03
239 769 STRIMBERG LUDOVIC C 80 03:23:14 23.03
240 1219 MINFRAY JULIEN A 26 03:23:29 23.00
241 853 GUIGON JEAN-LUC D 34 03:23:32 22.99
242 772 RONIN CHRISTIAN D 35 03:24:00 22.94
243 1324 DAVID GENEVIEVE W2 13 03:24:15 22.91
244 311 MOULIN LAURENT C 81 03:24:19 22.91
245 557 CROUZET RENE F 24 03:25:36 22.76
246 513 BOSQUET VALERIE W2 14 03:25:38 22.76
247 1218 MINFRAY JEROME C 82 03:25:46 22.74
248 828 SCOTT AUDREY W3 8 03:25:55 22.73
249 3 HALGAND-CUCCHIETTI CHRISTINE W2 15 03:26:22 22.68
250 613 CARLE LAURENT C 83 03:27:34 22.55
251 988 BOUMEZIREN BENJAMIN C 84 03:29:13 22.37
252 1347 VERGEZ ANNE W2 16 03:29:23 22.35
253 427 DAMIAN ADRIAN A 27 03:29:34 22.33
254 1194 VARIGAUD PERE D 36 03:29:34 22.33
255 409 CROZAT VINCENT C 85 03:29:35 22.33
256 973 BALLANDREAU CHRISTOPHE B 33 03:31:11 22.16
257 640 MENAGER JACKY D 37 03:31:50 22.09
258 48 KESSLER BERNARD E 20 03:32:34 22.02
259 23 JAMIN FRANCK D 38 03:32:54 21.98
260 938 BOUIS JEAN-LOUIS D 39 03:33:32 21.92
261 50 TULA MUSTAFA C 86 03:39:05 21.36
262 515 JOLY YANN C 87 03:40:40 21.21
263 1025 GIOMMETTI JEAN-PIERRE E 21 03:41:09 21.16
264 407 LOVERA CHRISTOPHE C 88 03:42:15 21.06
265 408 BULTEZ MUCKAEL B 34 03:42:15 21.06
266 472 LANGIERT THIERRY D 40 03:44:20 20.86
267 458 MONNEYRON GILLES D 41 03:44:24 20.86
268 999 REYNIER ANTHONY A 28 03:45:44 20.73
269 1001 CHIRIS AXEL A 29 03:45:47 20.73
270 989 BOURE RUDY A 30 03:45:52 20.72
271 1002 LIEUTAUD JULIAN B 35 03:45:55 20.72
272 1000 BIDON FREDERIC B 36 03:46:04 20.70
273 745 CHACHUAT GEORGES F 25 03:50:23 20.31
274 949 MORAND DIDIER C 89 03:51:47 20.19
275 904 DERVE ANDRE F 26 03:54:36 19.95
276 526 BOUCLIER CAROLE W3 9 03:54:47 19.93
277 1005 GRASSI CHRISTINE W3 10 03:56:19 19.80
278 1006 NIKOLOUSKI SANDRINE W2 17 03:56:19 19.80
279 1004 DUCAMP REJANE W3 11 03:56:19 19.80
280 270 LA-FORTEZZA NICOLAS B 37 03:56:28 19.79
281 1157 FABBRI ANGELE W3 12 04:00:03 19.50
282 1003 ZANON SERGE D 42 04:05:14 19.08
283 161 CLOT CYRIL B 38 04:08:08 18.86
284 169 PLUNIAN RENE E 22 04:10:30 18.68
285 24 JAMIN RICHARD C 90 04:34:57 17.02
286 1236 ROQUET STEPHANE C 91 04:34:59 17.02
287 300 AESCHBACHER ROSMARIE W3 13 04:39:47 16.73
288 118 DRIOU NEZHA W1 8 04:40:04 16.71
289 187 BERNARDI CHRISTIANE W3 14 04:42:22 16.57
290 1221 RABIAH SEBASTIEN A 31 04:50:14 16.12
291 1222 LECORRE YANNICK A 32 04:50:33 16.11

Haut 









Haut  
 Área privada   Direitos de autor-Copyright: Clique aqui para ler !